Regional Weather Roundup
Issued by NWS

Home | Current Version | Previous Version | Graphics & Text | Print | Product List | Glossary On
Versions: 1 2 3 4 5 6 7 8 9 10 11 12 13 14 15 16 17 18 19 20 21 22 23 24 25 26 27 28 29 30 31 32 33 34 35 36 37 38 39 40 41 42 43 44 45 46 47 48 49 50
950
ASUS44 KJAN 190910
RWRMS

MISSISSIPPI HOURLY WEATHER ROUNDUP
NATIONAL WEATHER SERVICE JACKSON MS
300 AM CST FRI DEC 19 2014

NOTE: "FAIR: INDICATES FEW OR NO CLOUDS BELOW 12,000 FEET WITH NO
SIGNIFICANT WEATHER AND/OR OBSTRUCTIONS TO VISIBILITY.

MSZ001>002-007>008-010>013-018>021-025>028-034>036-191000-
NORTHWEST MISSISSIPPI

CITY           SKY/WX    TMP DP  RH WIND       PRES   REMARKS
CLARKSDALE     CLOUDY    45  43  93 CALM      30.21S
CLEVELAND      CLOUDY    45  42  90 NE7       30.19S
GREENWOOD      CLOUDY    47  40  76 NE6       30.18F
GREENVILLE     CLOUDY    46  42  86 NE7       30.17F
GRENADA        CLOUDY    45  39  81 CALM      30.19S
OLIVE BRANCH   CLOUDY    39  39 100 NE5       30.20F
OXFORD         CLOUDY    41  37  87 E5        30.19F
TUNICA         CLOUDY    43  41  93 N5        30.22R
$$

MSZ003>006-009-014>017-022>024-029>033-037>039-191000-
NORTHEAST MISSISSIPPI

CITY           SKY/WX    TMP DP  RH WIND       PRES   REMARKS
COLUMBUS AFB   CLOUDY    37  36  93 CALM      30.19F
CORINTH        CLOUDY    43  37  81 CALM      30.19F
GOLDN TRIANGLE CLOUDY    39  37  93 N5        30.18F
STARKVILLE     CLOUDY    45  37  76 CALM      30.19S
TUPELO         CLOUDY    44  37  76 NE6       30.19F
$$

MSZ040-058-191000-
CENTRAL MISSISSIPPI

CITY           SKY/WX    TMP DP  RH WIND       PRES   REMARKS
JACKSON INTL   CLOUDY    47  43  86 VRB6      30.15F
JACKSON HAWKNS CLOUDY    48  43  82 E6        30.15F
MERIDIAN KEY   CLOUDY    45  37  73 NE6       30.18S
MERIDIAN NAS   CLOUDY    43  37  81 N5        30.19S
RAYMOND        CLOUDY    48  45  87 E3        30.15R
VICKSBURG      CLOUDY    50  44  80 NE5       30.14R
$$

MSZ059>079-191000-
SOUTH MISSISSIPPI

CITY           SKY/WX    TMP DP  RH WIND       PRES   REMARKS
HATTIESBURG    CLOUDY    51  49  92 E3        30.15S
MCCOMB         CLOUDY    51  49  92 NE5       30.11S
NATCHEZ        CLOUDY    50  48  93 E5        30.13R
PINE BELT      CLOUDY    48  45  87 NE7       30.15S
$$

MSZ080>082-191000-
COASTAL MISSISSIPPI

CITY           SKY/WX    TMP DP  RH WIND       PRES   REMARKS
BILOXI         CLOUDY    55  49  83 NE9       30.10F
PASCAGOULA     CLOUDY    54  47  77 NE8       30.11F
GULFPORT       CLOUDY    54  48  80 NE7       30.10F
$$



USA.gov is the U.S. government's official web portal to all federal, state and local government web resources and services.